www.pogodaiklimat.ru

ПОГОДА в Ролла / Виши, MO

  • Прогноз погоды в Ролла / Виши
  • Монитор погоды в Ролла / Виши
  • Климат в Ролла / Виши

АРХИВ ПОГОДЫ в Ролла / Виши

Время (UTC), дата Ветер
(напр.,м/с)
 
Видим.   Явления Облачность Т
(С)
Тd
(С)
f
(%)
Тe
(С)
Тes
(С)
Комфортность

P
(гПа)

Po
(гПа)
Тmin
(С)
Tmax
(С)
R
(мм)
SD
(см)
22:40 21.05 Ю  3 км  гроза, сильный дождь, дымка  10/10 1380 м  +16.1  +13.9  87  +16  +16      963.3         
22:53 21.05 ЮВ  8 км  гроза, дождь, дымка  10/2 1440 м
[средняя] 
+15.6  +13.3  86  +15  +15    1003.6  963.0  +15.6  +22.8  23.4   
23:01 21.05 ЮВ  10 км  дождь, дымка  10/2 1440 м
[средняя] 
+15.6  +13.3  86  +14  +14      963.0         
23:32 21.05 ЮВ  6
{10} 
10 км  гроза, дождь, дымка  10/0 2700 м
[средняя] 
+15.6  +13.9  90  +14  +14      963.0         
23:53 21.05 ЮВ  16 км  слабый дождь  10/0 2700 м
[средняя] 
+15.6  +12.8  83  +14  +14    1002.7  962.0         
00:53 22.05 ЮВ  16 км    2/0 3600 м
[средняя] 
+14.4  +12.2  87  +13  +13    1003.4  962.6         
01:53 22.05 Ю  16 км    ясно  +14.4  +11.1  81  +12  +12    1005.0  964.3      2.3   
02:53 22.05 Ю  16 км    ясно  +14.4  +12.2  87  +12  +12    1005.7  964.9         
03:53 22.05 Ю  16 км    ясно  +14.4  +12.2  87  +13  +13    1005.5  964.9         
04:53 22.05 Ю  16 км    ясно  +14.4  +11.7  84  +13  +13    1005.9  965.2  +13.9  +15.6  2.3   
05:53 22.05 Ю  16 км    ясно  +13.9  +11.1  83  +12  +12    1005.9  965.6         
06:53 22.05 Ю  16 км    ясно  +13.9  +11.1  83  +12  +12    1006.2  965.6         
07:53 22.05 ЮВ  16 км    ясно  +13.3  +10.6  84  +11  +11    1006.2  965.9         
08:53 22.05 ЮВ  16 км    ясно  +13.3  +10.0  80  +11  +11    1006.8  966.2         
09:53 22.05 ЮВ  16 км    ясно  +13.3  +10.0  80  +12  +12    1007.2  966.5         
10:53 22.05 Ю  16 км    5/5 1200 м  +14.4  +10.6  78  +12  +12    1007.9  967.2  +13.3  +14.4     
11:53 22.05 Ю  6
{11} 
16 км    10/10 1200 м  +16.1  +10.6  70  +15  +15    1008.1  967.5         
12:53 22.05 Ю  16 км    5/5 1140 м  +18.3  +12.2  68  +18  +19    1009.0  968.2         
13:53 22.05 Ю  6
{10} 
16 км    ясно  +21.1  +12.2  57  +23  +25  комфорт  1009.6  968.8         
14:53 22.05 Ю  7
{11} 
16 км    ясно  +22.8  +12.8  53  +26  +28  жарко  1010.1  969.5         
15:53 22.05 Ю  7
{11} 
16 км    ясно  +24.4  +12.8  48  +26  +30  жарко  1010.6  970.1         
16:53 22.05 ЮЗ  8
{13} 
16 км    ясно  +26.1  +13.9  47  +28  +31  жарко  1011.0  970.4  +14.4  +26.1     
17:53 22.05 Ю  9
{13} 
16 км    ясно  +26.7  +17.2  56  +31  +31  душно  1010.5  970.1         
18:53 22.05 Ю  9
{13} 
16 км    2/2 1230 м  +27.2  +18.9  60  +32  +33  очень
душно 
1010.3  969.8         
19:53 22.05 Ю  8
{13} 
16 км    2/2 1230 м  +27.8  +19.4  60  +33  +35  очень
душно 
1010.3  969.8         
20:53 22.05 Ю  9
{13} 
16 км    ясно  +28.3  +18.3  55  +33  +33  очень
душно 
1009.5  969.1         
21:53 22.05 Ю  8
{12} 
16 км    2/2 1410 м  +28.3  +18.9  57  +34  +34  очень
душно 
1009.9  969.5         
22:53 22.05 Ю  8
{11} 
16 км    5/5 1470 м  +27.2  +18.9  60  +32  +33  очень
душно 
1010.3  969.8  +26.1  +28.3     
23:53 22.05 Ю  16 км    2/2 1950 м  +25.6  +18.9  66  +31  +31  очень
душно 
1010.4  970.1         
00:53 23.05 Ю  16 км    ясно  +25.0  +19.4  71  +30  +30  душно  1010.7  970.1         
01:53 23.05 Ю  16 км    ясно  +24.4  +20.0  76  +30  +30  очень
душно 
1011.4  971.1         
02:53 23.05 Ю  6
{10} 
14 км    2/0 2700 м
[средняя] 
+24.4  +21.1  82  +31  +31  очень
душно 
1011.9  971.7         
03:53 23.05 Ю  6
{12} 
16 км    2/0 2850 м
[средняя] 
+25.0  +21.1  79  +32  +32  очень
душно 
1012.9  972.7         
04:11 23.05 Ю  6
{10} 
14 км  гроза, слабый дождь  8/2 1230 м
[средняя] 
+24.4  +21.1  82  +31  +31  очень
душно 
  973.4         
04:53 23.05 Ю  14 км    2/0 3300 м
[средняя] 
+23.9  +21.7  88  +31  +31  очень
душно 
1012.8  972.7  +23.9  +27.2  0.3   
05:15 23.05 Ю  14 км  гроза, слабый дождь  5/0 2100 м
[средняя] 
+23.9  +21.1  84  +30  +30  очень
душно 
  973.4         
05:42 23.05 Ю  16 км  гроза со слабым дождем  8/2 900 м
[средняя] 
+23.9  +21.1  84  +30  +30  очень
душно 
           
05:53 23.05 Ю  14 км  гроза, слабый дождь  8/5 960 м
[средняя] 
+23.9  +21.1  84  +30  +30  очень
душно 
1013.9  973.7         
06:24 23.05 З  4 км  гроза с сильным дождем, дымка  10/8 750 м
[средняя] 
+22.8  +21.7  94  +31  +31  очень
душно 
           
06:45 23.05 З  10 км  слабый дождь, дымка  10/10 810 м  +22.8  +21.7  94  +31  +31  очень
душно 
  974.7         
06:53 23.05 З  10 км  дымка  10/10 600 м  +22.8  +21.7  94  +31  +31  очень
душно 
1015.0  974.7         
07:15 23.05 СЗ  10 км  слабый дождь, дымка  8/8 570 м
[средняя] 
+22.2  +21.1  93  +29  +29  очень
душно 
  974.0         
07:35 23.05 З  6 км  дымка  5/5 60 м  +21.7  +20.6  93  +27  +27  душно    974.7         
07:53 23.05 СЗ  11 км    8/8 60 м
[средняя] 
+21.7  +20.0  90  +27  +27  душно  1015.6  975.3      5.1   
08:53 23.05     6 км  слабый дождь, дымка  8/5 90 м
[средняя] 
+20.6  +19.4  93  +25  +25  комфорт  1014.4  974.0         
09:04 23.05 С  8 км  дождь, дымка  10/8 240 м
[средняя] 
+20.0  +18.9  93  +23  +23  комфорт    975.3         
09:15 23.05 СВ  11 км  слабый дождь  8/8 240 м  +20.0  +18.9  93  +23  +23  комфорт    974.7         
09:23 23.05 С  14 км  слабый дождь  10/10 210 м  +20.0  +18.9  93  +23  +23  комфорт    975.3         

 

Местоположение метеостанции Rolla National Airport: широта 38.1319 долгота -91.7653 высота над уровнем моря 350 м.

В архиве по умолчанию представлена погода в Ролла / Виши за последние 1-2 суток. Обновление информации о фактической погоде в базе происходит ежечасно! Архивные данные за месяц целиком и за предыдущие месяцы Вы можете получить, выбрав интересующий диапазон дат из раскрывающегося списка и нажав кнопку "Ввод!".

Внимание! Архив погоды МЕТАР в базе сайта хранится не более 60 дней. Нет смысла пытаться выбрать более раннюю дату.

Внимание! Время в таблицах - всемирное. Для получения местного времени необходимо прибавить поправку, которая в Ролла / Виши равна -6 ч.

Ветер - указаны скорость ветра в м/с и направление, откуда дует ветер: С - северный, СВ - северо-восточный, В - восточный, ЮВ - юго-восточный, Ю - южный, ЮЗ - юго-западный, З - западный, СЗ - северо-западный.
Видимость - горизонтальная дальность видимости в метрах или километрах. При видимости от 1 до 10 км при отсутствии осадков обычно наблюдается дымка, при ухудшении видимости до 1 км и менее - туман. В сухую погоду видимость может ухудшаться дымом, пылью или мглою.
Атмосферные явления - указаны явления, наблюдавшиеся в указанный момент времени.
Облачность - указаны через наклонную черту верхняя и нижняя облачность в баллах и высота нижней границы облаков в метрах. Внимание: облачность, как и прочие метеорологические величины в США измеряются автоматическими метеостанциями. Указанные значения в баллах носят условный характер и показывают процент времени, в течение которого, в среднем, лазерный луч высотомера отражался от облаков обратно.
T - Температура воздуха - температура, измеренная на высоте 2 м над землей.
Td - Температура точки росы - температура, при понижении до которой содержащийся в воздухе водяной пар достигнет насыщения.
f - Относительная влажность воздуха - влажноcть воздуха, измеренная на высоте 2 м над землей.
Te - Эффективная температура - температура, которую ощущает одетый по сезону человек в тени. Характеристика душности погоды. При расчете учитывается влияние влажности воздуха и скорости ветра на теплоощущения человека.
Tes - Эффективная температура на солнце - температура, которую ощущает человек, с поправкой на солнечный нагрев. Характеристика знойности погоды. Зависит от высоты солнца над горизонтом, облачности и скорости ветра. Ночью, в пасмурную погоду, а также при ветре 12 м/с и более поправка равна нулю.
P - Атмосферное давление - приведенное к уровню моря атмосферное давление.
Po - Атмосферное давление - измеренное на уровне метеостанции атмосферное давление.
Tmin - Минимальная температура - минимум температуры воздуха на высоте 2 м над землей.
Tmax - Максимальная температура - максимум температуры воздуха на высоте 2 м над землей.
R - Количество осадков - Количество выпавших осадков за 3 или 6 часов, мм.
SD - Снежный покров - Высота снежного покрова, см.